• MPC Preparation (Info)

  • MPEC 2023-F60 : 2023 FK1

    The following Minor Planet Electronic Circular may be linked-to from your own Web pages, but must not otherwise be redistributed electronically.

    A form allowing access to any MPEC is at the bottom of this page.


    Read MPEC 2023-F59 Read MPEC 2023-F61


    M.P.E.C. 2023-F60                                Issued 2023 March 20, 06:34 UT
    
         The Minor Planet Electronic Circulars contain information on unusual
             minor planets, routine data on comets and natural satellites,
             and occasional editorial announcements.  They are published
        on behalf of Division F of the International Astronomical Union by the
              Minor Planet Center, Smithsonian Astrophysical Observatory,
                              Cambridge, MA 02138, U.S.A.
    			  
                 Prepared using the Tamkin Foundation Computer Network
    
                                  MPC@CFA.HARVARD.EDU
                URL https://www.minorplanetcenter.net/    ISSN 1523-6714
    
                                    2023 FK1                                 
    
    
    Observations:
         K23F01K* C2023 03 18.37576511 23 01.595-08 35 41.57         20.68wUEF060F52
         K23F01K  C2023 03 18.39922811 22 42.012-08 37 31.38         20.59wUEF060F52
         K23F01K  C2023 03 18.41198511 22 31.246-08 38 31.47         20.71wUEF060F52
         K23F01K  C2023 03 18.48384311 21 29.862-08 44 09.92         20.57GVEF060F52
         K23F01K  C2023 03 18.48447511 21 29.311-08 44 12.84         20.46GVEF060F52
         K23F01K  C2023 03 18.48518611 21 28.701-08 44 16.22         20.41GVEF060F52
         K23F01K  C2023 03 18.48585411 21 28.132-08 44 19.34         20.47GVEF060F52
         K23F01K |C2023 03 19.05172 11 13 30.18 -09 30 54.1          20.9 VuEF060807
         K23F01K |C2023 03 19.05747 11 13 24.19 -09 31 29.8          20.7 VuEF060807
         K23F01K |C2023 03 19.06321 11 13 18.18 -09 32 03.3          20.7 VuEF060807
         K23F01K KC2023 03 19.25836 11 09 48.16 -09 56 41.1          20.5 VqEF060734
         K23F01K KC2023 03 19.26224 11 09 43.67 -09 57 05.5          20.4 VqEF060734
         K23F01K KC2023 03 19.26602 11 09 39.37 -09 57 29.8          20.5 VqEF060734
         K23F01K  C2023 03 19.38155211 07 37.512-10 09 02.34         20.19wUEF060F52
         K23F01K  C2023 03 19.39297511 07 23.407-10 10 19.54         20.16wUEF060F52
         K23F01K  C2023 03 19.40441611 07 09.222-10 11 36.66         20.37wUEF060F52
         K23F01K  C2023 03 19.42662611 06 41.501-10 14 06.66         20.06GVEF060F52
         K23F01K  C2023 03 19.42743111 06 40.503-10 14 12.00         20.10GVEF060F52
         K23F01K KC2023 03 19.96650910 55 00.33 -11 23 59.1          19.0 GXEF060958
         K23F01K KC2023 03 19.97131610 54 52.73 -11 24 38.5          19.4 GXEF060958
         K23F01K KC2023 03 19.97605310 54 45.34 -11 25 20.5          19.0 GXEF060958
         K23F01K |C2023 03 20.04809 10 53 08.64 -11 29 43.8          20.3 VuEF060807
         K23F01K |C2023 03 20.05385 10 52 59.23 -11 30 34.5          19.8 VuEF060807
         K23F01K |C2023 03 20.05961 10 52 49.82 -11 31 26.5          20.2 VuEF060807
         K23F01K KC2023 03 20.12617410 51 02.20 -11 47 03.0          20.2 GVEF060H21
         K23F01K KC2023 03 20.12896910 50 57.48 -11 47 29.0          20.0 GVEF060H21
         K23F01K KC2023 03 20.13456010 50 47.96 -11 48 20.6          20.1 GVEF060H21
         K23F01K KC2023 03 20.14015110 50 38.43 -11 49 12.6          20.2 GVEF060H21
         K23F01K KC2023 03 20.14462310 50 30.79 -11 49 53.9          19.9 GVEF060H21
    
    Observer details:
    734 Farpoint Observatory, Eskridge.  Observers D. Cromer, G. Hug, D. Goodin,
        R. Valentine.  Measurer D. Cromer.  0.70-m f/3.0 reflector + CCD.
    807 Cerro Tololo Observatory, La Serena.  Observers T. Linder, R. Holmes, L.
        Horn.  0.61-m f/6.5 Dall-Kirkham Astrograph + CCD.
    958 Observatoire de Dax.  Observers P. Dupouy, J. B. de Vanssay.  Measurer P.
        Dupouy.  0.43-m f/2.7 Reflector + CCD.
    F52 Pan-STARRS 2, Haleakala.  Observers J. Bulger, T. Lowe, A. Schultz, I.
        Smith, K. Chambers, T. Dukes.  Measurers K. Chambers, S. Chastel, T. de
        Boer, J. Fairlamb, H. Gao, M. Huber, C.-C. Lin, E. Magnier, Y.
        Ramanjooloo, R. Wainscoat, R. Weryk.  1.8-m Ritchey-Chretien + CCD.
    H21 Astronomical Research Observatory, Westfield.  Observer R. Holmes.
        Measurers T. Linder, R. Holmes, L. Horn.  0.76-m f/3.0 astrograph + CCD.
    
    Orbital elements:
    2023 FK1                                                 Earth MOID = 0.0091 AU
    Epoch 2023 Feb. 25.0 TT = JDT 2460000.5                 Bell                    
    M 287.64272              (2000.0)            P               Q                  
    n   0.82255683     Peri.  311.81506     +0.21101709     +0.97744387             
    a   1.1281290      Node   330.36358     -0.89154097     +0.18881754             
    e   0.4301714      Incl.    1.00528     -0.40078233     +0.09461193             
    P   1.20           H   26.84          G   0.15           U   7                  
    Residuals in seconds of arc
    230318 F52  0.1-  0.1-    230319 734  0.1+  0.1-    230319 958  2.4+  1.5-
    230318 F52  0.2+  0.1+    230319 734  0.3-  0.1+    230320 807  0.2-  0.3-
    230318 F52  0.1-  0.1-    230319 734  0.6+  0.1-    230320 807  0.5-  0.5+
    230318 F52  0.1+  0.0     230319 F52  0.5+  0.1+    230320 807  0.2-  0.1+
    230318 F52  0.0   0.0     230319 F52  0.0   0.2-    230320 H21  0.1-  0.1-
    230318 F52  0.1+  0.0     230319 F52  0.1-  0.2-    230320 H21  0.2+  0.2-
    230318 F52  0.2+  0.1+    230319 F52  0.1-  0.1-    230320 H21  0.0   0.0
    230319 807  0.1-  0.5+    230319 F52  0.1+  0.0     230320 H21  0.2+  0.2-
    230319 807  0.2-  0.6-    230319 958  1.4+  1.4-    230320 H21  0.5+  0.1+
    230319 807  0.3-  0.4+    230319 958  1.1+  0.1+
    
    Ephemeris:
    2023 FK1                 a,e,i = 1.13, 0.43, 1                   q = 0.6428
    Date    TT    R. A. (2000) Decl.     Delta      r    Elong.  Phase     V
    2023 02 18    12 10 45.7 -01 38 42   0.2814  1.2307   145.6    27.0    25.7
    ...
    2023 03 05    12 08 47.5 -03 15 25   0.1476  1.1317   160.4    17.1    23.9
    ...
    2023 03 13    11 56 08.2 -04 58 43   0.08243 1.0748   169.5     9.7    22.2
    ...
    2023 03 19    11 14 10.8 -09 27 25   0.03627 1.0306   166.0    13.5    20.5
    2023 03 20    10 54 11.5 -11 24 30   0.02906 1.0231   160.7    18.8    20.2
    2023 03 21    10 21 01.7 -14 23 21   0.02227 1.0156   151.7    27.7    19.8
    ...
    2023 03 27    01 55 11.9 -07 50 11   0.03075 0.9699    25.6   153.7    28.4
    ...
    2023 04 04    00 55 19.6 -01 23 09   0.09224 0.9083     6.9   172.4
    ...
    2023 04 19    00 41 29.6 +01 05 14   0.2238  0.7954    18.7   156.2    32.9
    
    M. P. C. Staff               (C) Copyright 2023 MPC           M.P.E.C. 2023-F60
    


    Read MPEC 2023-F59 Read MPEC 2023-F61


    MPEC number:

    Enter an MPEC number in one of the following forms:

    • 1997-B01 (the full form)
    • J97B01 (the packed version of the full form)
    • B01 (the abbreviated form)